When you browse on this site, cookies collect data to enhance your experience and personalize the content and advertising you see.
Visit our Privacy Policy to learn more. By continuing to use the site, you agree to this use of cookies and data.
  • In United Kingdom
  • List of Countries
  • For 7 days
  • Water Temperature
  • Satellite Maps
  • Weather Map
  • Weather Widgets
  • user-avatar
    Login

    Hourly Weather Preston

    Today, 17 January, Thursday

    Time Temperature Precipitation Wind Pressure Humidity
    00:00 +2°C° 0 mm 5 mps 749 mmHg 81%
    01:00 +2°C° 0.1 mm 6 mps 749 mmHg 81%
    02:00 +2°C° 0.1 mm 6 mps 750 mmHg 81%
    03:00 0°C° 0.1 mm 7 mps 751 mmHg 81%
    04:00 0°C° 0 mm 7 mps 752 mmHg 77%
    05:00 -1°C° 0 mm 7 mps 753 mmHg 73%
    06:00 -1°C° 0 mm 5 mps 754 mmHg 69%
    07:00 -2°C° 0 mm 6 mps 754 mmHg 68%
    08:00 -2°C° 0 mm 6 mps 755 mmHg 66%
    09:00 -2°C° 0 mm 6 mps 755 mmHg 65%
    10:00 -1°C° 0 mm 6 mps 756 mmHg 62%
    11:00 0°C° 0 mm 7 mps 757 mmHg 59%
    12:00 +2°C° 0 mm 7 mps 757 mmHg 57%
    13:00 +2°C° 0 mm 6 mps 758 mmHg 58%
    14:00 +2°C° 0 mm 5 mps 758 mmHg 59%
    15:00 +3°C° 0 mm 4 mps 759 mmHg 60%
    16:00 +1°C° 0 mm 4 mps 759 mmHg 62%
    17:00 +1°C° 0 mm 3 mps 759 mmHg 64%
    18:00 +2°C° 0 mm 2 mps 760 mmHg 66%
    19:00 +3°C° 0 mm 1 mps 760 mmHg 66%
    20:00 +3°C° 0 mm 1 mps 760 mmHg 67%
    21:00 +2°C° 0 mm 0 mps 760 mmHg 67%
    22:00 +3°C° 0 mm 1 mps 760 mmHg 67%
    23:00 +3°C° 0 mm 1 mps 760 mmHg 67%

    Tomorrow, 18 January, Friday

    Time Temperature Precipitation Wind Pressure Humidity
    00:00 +2°C° 0 mm 2 mps 760 mmHg 67%
    01:00 +1°C° 0 mm 2 mps 760 mmHg 68%
    02:00 0°C° 0 mm 3 mps 760 mmHg 68%
    03:00 0°C° 0 mm 3 mps 760 mmHg 69%
    04:00 -1°C° 0 mm 4 mps 759 mmHg 69%
    05:00 -1°C° 0 mm 4 mps 759 mmHg 68%
    06:00 -1°C° 0 mm 4 mps 758 mmHg 68%
    07:00 -1°C° 0 mm 5 mps 758 mmHg 68%
    08:00 -1°C° 0 mm 5 mps 758 mmHg 67%
    09:00 -1°C° 0 mm 5 mps 758 mmHg 66%
    10:00 -1°C° 0 mm 6 mps 757 mmHg 64%
    11:00 0°C° 0 mm 7 mps 757 mmHg 62%
    12:00 +1°C° 0 mm 8 mps 757 mmHg 60%
    13:00 +1°C° 0.3 mm 8 mps 756 mmHg 65%
    14:00 +1°C° 0.3 mm 8 mps 755 mmHg 69%
    15:00 +1°C° 0.3 mm 8 mps 755 mmHg 73%
    16:00 +1°C° 0.5 mm 8 mps 754 mmHg 76%
    17:00 +1°C° 0.5 mm 8 mps 754 mmHg 80%
    18:00 +1°C° 0.5 mm 8 mps 754 mmHg 83%
    19:00 0°C° 0.2 mm 8 mps 754 mmHg 83%
    20:00 0°C° 0.2 mm 8 mps 753 mmHg 84%
    21:00 0°C° 0.2 mm 8 mps 753 mmHg 84%
    22:00 0°C° 0.1 mm 7 mps 753 mmHg 86%
    23:00 0°C° 0.1 mm 7 mps 753 mmHg 87%

    Day after tomorrow, 19 January, Saturday

    Time Temperature Precipitation Wind Pressure Humidity
    00:00 +1°C° 0.1 mm 6 mps 753 mmHg 89%
    01:00 +2°C° 0.1 mm 6 mps 752 mmHg 90%
    02:00 +2°C° 0.1 mm 6 mps 752 mmHg 92%
    03:00 +2°C° 0.1 mm 5 mps 752 mmHg 93%
    04:00 +2°C° 0 mm 5 mps 751 mmHg 93%
    05:00 +2°C° 0 mm 5 mps 751 mmHg 93%
    06:00 +3°C° 0 mm 4 mps 751 mmHg 94%
    07:00 +3°C° 0 mm 4 mps 751 mmHg 94%
    08:00 +3°C° 0 mm 4 mps 751 mmHg 94%
    09:00 +3°C° 0 mm 3 mps 751 mmHg 94%
    10:00 +3°C° 0 mm 3 mps 751 mmHg 93%
    11:00 +4°C° 0 mm 3 mps 751 mmHg 92%
    12:00 +4°C° 0 mm 3 mps 751 mmHg 92%
    13:00 +5°C° 0 mm 2 mps 751 mmHg 91%
    14:00 +5°C° 0 mm 2 mps 751 mmHg 91%
    15:00 +5°C° 0 mm 2 mps 751 mmHg 91%
    16:00 +5°C° 0 mm 2 mps 752 mmHg 92%
    17:00 +5°C° 0 mm 1 mps 752 mmHg 93%
    18:00 +4°C° 0 mm 1 mps 753 mmHg 94%
    19:00 +4°C° 0 mm 1 mps 753 mmHg 93%
    20:00 +4°C° 0 mm 1 mps 754 mmHg 93%
    21:00 +5°C° 0 mm 1 mps 754 mmHg 93%
    22:00 +5°C° 0 mm 1 mps 755 mmHg 92%
    23:00 +5°C° 0 mm 1 mps 755 mmHg 92%

    20 January, Sunday

    Time Temperature Precipitation Wind Pressure Humidity
    00:00 +5°C° 0 mm 1 mps 756 mmHg 91%
    01:00 +4°C° 0 mm 1 mps 756 mmHg 91%
    02:00 +4°C° 0 mm 1 mps 756 mmHg 91%
    03:00 +4°C° 0 mm 1 mps 756 mmHg 91%
    04:00 +4°C° 0 mm 1 mps 757 mmHg 91%
    05:00 +3°C° 0 mm 1 mps 757 mmHg 91%
    06:00 +3°C° 0 mm 1 mps 758 mmHg 91%
    07:00 +2°C° 0 mm 0 mps 758 mmHg 90%
    08:00 +2°C° 0 mm 0 mps 759 mmHg 90%
    09:00 +2°C° 0 mm 0 mps 759 mmHg 89%
    10:00 +4°C° 0 mm 2 mps 760 mmHg 88%
    11:00 +4°C° 0 mm 3 mps 761 mmHg 87%
    12:00 +5°C° 0 mm 4 mps 761 mmHg 86%
    13:00 +5°C° 0 mm 5 mps 762 mmHg 85%
    14:00 +3°C° 0 mm 5 mps 762 mmHg 83%
    15:00 +3°C° 0 mm 6 mps 763 mmHg 81%
    16:00 +2°C° 0 mm 6 mps 763 mmHg 80%
    17:00 +2°C° 0 mm 5 mps 764 mmHg 79%
    18:00 +1°C° 0 mm 5 mps 765 mmHg 78%
    19:00 +1°C° 0 mm 5 mps 766 mmHg 77%
    20:00 0°C° 0 mm 5 mps 766 mmHg 76%
    21:00 0°C° 0 mm 4 mps 767 mmHg 75%
    22:00 0°C° 0 mm 4 mps 767 mmHg 75%
    23:00 0°C° 0 mm 4 mps 768 mmHg 75%

    21 January, Monday

    Time Temperature Precipitation Wind Pressure Humidity
    00:00 -1°C° 0 mm 4 mps 768 mmHg 74%
    01:00 -1°C° 0 mm 4 mps 768 mmHg 74%
    02:00 0°C° 0 mm 3 mps 768 mmHg 73%
    03:00 0°C° 0 mm 3 mps 768 mmHg 72%
    04:00 +1°C° 0 mm 2 mps 768 mmHg 72%
    05:00 +1°C° 0 mm 2 mps 767 mmHg 72%
    06:00 +2°C° 0 mm 1 mps 767 mmHg 72%
    07:00 +2°C° 0 mm 1 mps 767 mmHg 73%
    08:00 +3°C° 0 mm 1 mps 767 mmHg 73%
    09:00 +3°C° 0 mm 1 mps 767 mmHg 73%
    10:00 +3°C° 0 mm 2 mps 766 mmHg 73%
    11:00 +3°C° 0 mm 3 mps 765 mmHg 73%
    12:00 +3°C° 0 mm 4 mps 764 mmHg 73%
    13:00 +3°C° 0.1 mm 4 mps 763 mmHg 74%
    14:00 +2°C° 0.1 mm 5 mps 762 mmHg 74%
    15:00 +2°C° 0.1 mm 5 mps 761 mmHg 75%
    16:00 +2°C° 0.1 mm 5 mps 760 mmHg 76%
    17:00 +1°C° 0.1 mm 6 mps 758 mmHg 78%
    18:00 +1°C° 0.1 mm 6 mps 757 mmHg 80%
    19:00 0°C° 0.5 mm 7 mps 755 mmHg 81%
    20:00 0°C° 0.5 mm 8 mps 754 mmHg 83%
    21:00 0°C° 0.5 mm 9 mps 752 mmHg 84%
    22:00 0°C° 0.9 mm 9 mps 751 mmHg 85%
    23:00 0°C° 0.9 mm 10 mps 749 mmHg 85%

    22 January, Tuesday

    Time Temperature Precipitation Wind Pressure Humidity
    00:00 0°C° 0.9 mm 10 mps 748 mmHg 86%
    01:00 0°C° 0.7 mm 9 mps 748 mmHg 87%
    02:00 0°C° 0.7 mm 8 mps 747 mmHg 89%
    03:00 +2°C° 0.7 mm 7 mps 746 mmHg 90%
    04:00 0°C° 0.2 mm 7 mps 746 mmHg 87%
    05:00 0°C° 0.2 mm 8 mps 746 mmHg 84%
    06:00 0°C° 0.2 mm 8 mps 746 mmHg 80%
    07:00 0°C° 0.1 mm 8 mps 746 mmHg 80%
    08:00 0°C° 0.1 mm 7 mps 746 mmHg 80%
    09:00 0°C° 0.1 mm 7 mps 746 mmHg 80%
    10:00 0°C° 0.2 mm 7 mps 746 mmHg 79%
    11:00 0°C° 0.2 mm 7 mps 747 mmHg 79%
    12:00 0°C° 0.2 mm 7 mps 747 mmHg 79%
    13:00 0°C° 0.2 mm 7 mps 747 mmHg 79%
    14:00 0°C° 0.2 mm 7 mps 747 mmHg 79%
    15:00 0°C° 0.2 mm 7 mps 747 mmHg 79%
    16:00 0°C° 0.1 mm 7 mps 747 mmHg 79%
    17:00 0°C° 0.1 mm 7 mps 748 mmHg 80%
    18:00 0°C° 0.1 mm 7 mps 748 mmHg 80%
    19:00 +1°C° 0.2 mm 6 mps 749 mmHg 81%
    20:00 +1°C° 0.2 mm 6 mps 749 mmHg 82%
    21:00 +1°C° 0.2 mm 6 mps 750 mmHg 83%
    22:00 -1°C° 0.3 mm 6 mps 750 mmHg 84%
    23:00 0°C° 0.3 mm 5 mps 750 mmHg 85%
    Show more